Tracking 31027 objects as of 19-Jul-2025
HD Live streaming from Space Station
objects crossing your sky now

SL-14 DEB

Track SL-14 DEB now!
10-day predictions


NORAD ID: 26023
Int'l Code: 1991-068AJ
Perigee: 1,460.5 km
Apogee: 1,471.8 km
Inclination: 82.6 °
Period: 115.1 minutes
Semi major axis: 7837 km
RCS: 0.0267 m2 (small)
Launch date: September 28, 1991
Source: Commonwealth of Independent States (former USSR) (CIS)
Launch site: PLESETSK MISSILE AND SPACE COMPLEX (PKMTR)

Note: This is SATELLITE DEBRIS
Your satellite tracking list
LANDSAT 5
Track 1 satellite(s)




NASA's NSSDC Master Catalog

Two Line Element Set (TLE):
1 26023U 91068AJ  25198.43959765 -.00000005  00000-0 -96791-4 0  9993
2 26023  82.5802 343.3561 0007208 304.6122 112.6753 12.51310860545804
Source of the keplerian elements: AFSPC